UAE75T YBBN-OMDB

Flight info

Callsign UAE75T
Flight time N/A
Altitude 26000
Route WACKO V250 UNVAT DCT 2456S14730E 23S143E/N0499F280 22S141E 21S139E 19S136E 18S134E 17S132E 16S130E DCT SUNPO DCT ONOXA/N0516F300 G326 BLI DCT KIDET DCT PEBSA/N0511F320 DCT KAT P570 TVM/N0504F340 V27 RUVAN V28 DOTAT P570 ITURA DCT VAXAS DCT MIVEK P574 IMPED
Aircraft B77W/H-SDE1E2E3FGHIJ2J3J4J5M1RWXY/LB1D1

Departure

Time 2026-05-06 06:48
Airport Brisbane International Airport (YBBN)

Arrival

Time N/A
Airport Dubai International Airport (OMDB)
Time Latitude Longitude Altitude Speed Heading
2026-05-06 05:34 -27.40052 153.11360 27 ft 0 kts 297°
2026-05-06 06:35 -27.40058 153.11374 27 ft 2 kts 297°
2026-05-06 06:35 -27.40065 153.11388 27 ft 2 kts 297°
2026-05-06 06:36 -27.40072 153.11403 27 ft 2 kts 297°
2026-05-06 06:36 -27.40079 153.11418 27 ft 2 kts 313°
2026-05-06 06:36 -27.40091 153.11429 27 ft 2 kts 334°
2026-05-06 06:36 -27.40105 153.11433 27 ft 2 kts 351°
2026-05-06 06:37 -27.40120 153.11435 27 ft 2 kts
2026-05-06 06:37 -27.40134 153.11430 27 ft 1 kts 25°
2026-05-06 06:37 -27.40139 153.11427 27 ft 0 kts 28°
2026-05-06 06:39 -27.40132 153.11432 27 ft 2 kts 28°
2026-05-06 06:39 -27.40103 153.11449 27 ft 6 kts 28°
2026-05-06 06:39 -27.40053 153.11478 27 ft 9 kts 27°
2026-05-06 06:40 -27.39983 153.11517 27 ft 12 kts 27°
2026-05-06 06:40 -27.39908 153.11559 27 ft 10 kts 26°
2026-05-06 06:40 -27.39861 153.11606 27 ft 7 kts 81°
2026-05-06 06:40 -27.39868 153.11656 27 ft 6 kts 86°
2026-05-06 06:41 -27.39842 153.11703 27 ft 8 kts 36°
2026-05-06 06:41 -27.39781 153.11742 27 ft 12 kts 28°
2026-05-06 06:41 -27.39689 153.11795 27 ft 17 kts 27°
2026-05-06 06:41 -27.39571 153.11862 27 ft 20 kts 27°
2026-05-06 06:42 -27.39433 153.11942 27 ft 23 kts 27°
2026-05-06 06:42 -27.39284 153.12028 27 ft 25 kts 27°
2026-05-06 06:42 -27.39121 153.12120 27 ft 26 kts 26°
2026-05-06 06:42 -27.38956 153.12212 27 ft 25 kts 26°
2026-05-06 06:43 -27.38799 153.12300 27 ft 24 kts 26°
2026-05-06 06:43 -27.38655 153.12381 27 ft 22 kts 27°
2026-05-06 06:43 -27.38513 153.12463 27 ft 22 kts 28°
2026-05-06 06:43 -27.38376 153.12546 27 ft 22 kts 27°
2026-05-06 06:44 -27.38240 153.12624 27 ft 21 kts 28°
2026-05-06 06:44 -27.38106 153.12698 27 ft 21 kts 26°
2026-05-06 06:44 -27.37976 153.12775 27 ft 20 kts 28°
2026-05-06 06:44 -27.37848 153.12849 27 ft 20 kts 26°
2026-05-06 06:45 -27.37720 153.12920 27 ft 20 kts 26°
2026-05-06 06:45 -27.37599 153.12990 27 ft 18 kts 28°
2026-05-06 06:45 -27.37487 153.13058 27 ft 17 kts 27°
2026-05-06 06:45 -27.37379 153.13117 27 ft 15 kts 26°
2026-05-06 06:46 -27.37292 153.13165 27 ft 10 kts 34°
2026-05-06 06:46 -27.37272 153.13229 27 ft 8 kts 101°
2026-05-06 06:46 -27.37299 153.13297 27 ft 9 kts 118°
2026-05-06 06:46 -27.37334 153.13367 27 ft 10 kts 124°
2026-05-06 06:47 -27.37392 153.13422 27 ft 11 kts 158°
2026-05-06 06:47 -27.37472 153.13426 27 ft 12 kts 198°
2026-05-06 06:47 -27.37584 153.13365 27 ft 35 kts 207°
2026-05-06 06:47 -27.38002 153.13127 27 ft 98 kts 207°
2026-05-06 06:48 -27.38797 153.12672 27 ft 156 kts 207°
2026-05-06 06:48 -27.39915 153.12044 175 ft 192 kts 204°
2026-05-06 06:48 -27.41100 153.11365 883 ft 193 kts 205°
2026-05-06 06:48 -27.42324 153.10635 1481 ft 206 kts 204°
2026-05-06 06:49 -27.43586 153.09904 2088 ft 203 kts 204°
2026-05-06 06:49 -27.44873 153.09164 2374 ft 212 kts 204°
2026-05-06 06:49 -27.46184 153.08409 2838 ft 211 kts 204°
2026-05-06 06:49 -27.47505 153.07638 3179 ft 218 kts 208°
2026-05-06 06:50 -27.48669 153.06435 3260 ft 241 kts 233°
2026-05-06 06:50 -27.49370 153.04628 3425 ft 259 kts 261°
2026-05-06 06:50 -27.49338 153.02602 3827 ft 265 kts 279°
2026-05-06 06:50 -27.49024 153.00539 4347 ft 267 kts 280°
2026-05-06 06:51 -27.48692 152.98485 4923 ft 267 kts 280°
2026-05-06 06:51 -27.48360 152.96443 5477 ft 268 kts 280°
2026-05-06 06:51 -27.48025 152.94379 6043 ft 268 kts 281°
2026-05-06 06:51 -27.47521 152.92352 6426 ft 275 kts 299°
2026-05-06 06:52 -27.46294 152.90671 6712 ft 283 kts 325°
2026-05-06 06:52 -27.44556 152.89557 7078 ft 291 kts 334°
2026-05-06 06:52 -27.42735 152.88564 7682 ft 292 kts 334°
2026-05-06 06:52 -27.40906 152.87575 8302 ft 292 kts 334°
2026-05-06 06:53 -27.39068 152.86581 8887 ft 294 kts 334°
2026-05-06 06:53 -27.37211 152.85579 9434 ft 296 kts 334°
2026-05-06 06:53 -27.35364 152.84582 10011 ft 297 kts 334°
2026-05-06 06:53 -27.33486 152.83569 10382 ft 306 kts 333°
2026-05-06 06:54 -27.31483 152.82487 10498 ft 326 kts 333°
2026-05-06 06:54 -27.29379 152.81354 10595 ft 346 kts 334°
2026-05-06 06:54 -27.27142 152.80148 10613 ft 367 kts 334°
2026-05-06 06:54 -27.24771 152.78871 10863 ft 381 kts 334°
2026-05-06 06:55 -27.22388 152.77533 11551 ft 382 kts 330°
2026-05-06 06:55 -27.20203 152.75868 12273 ft 380 kts 320°
2026-05-06 06:55 -27.18323 152.73782 12862 ft 383 kts 309°
2026-05-06 06:55 -27.16805 152.71323 13396 ft 388 kts 299°
2026-05-06 06:56 -27.15558 152.68637 14033 ft 389 kts 297°
2026-05-06 06:56 -27.14327 152.65930 14662 ft 390 kts 297°
2026-05-06 06:56 -27.13087 152.63229 15253 ft 392 kts 298°
2026-05-06 06:56 -27.11839 152.60533 15831 ft 394 kts 298°
2026-05-06 06:57 -27.10559 152.57782 16395 ft 396 kts 298°
2026-05-06 06:57 -27.09292 152.55069 16963 ft 398 kts 298°
2026-05-06 06:57 -27.08000 152.52312 17537 ft 399 kts 298°
2026-05-06 06:57 -27.06713 152.49571 18051 ft 401 kts 298°
2026-05-06 06:58 -27.05400 152.46779 18523 ft 404 kts 298°
2026-05-06 06:58 -27.04095 152.44011 18937 ft 408 kts 298°
2026-05-06 06:58 -27.02754 152.41173 19391 ft 412 kts 298°
2026-05-06 06:58 -27.01410 152.38332 19928 ft 412 kts 298°
2026-05-06 06:59 -27.00080 152.35521 20389 ft 415 kts 298°
2026-05-06 06:59 -26.98721 152.32651 20889 ft 416 kts 298°
2026-05-06 06:59 -26.97405 152.29875 21331 ft 418 kts 298°
2026-05-06 06:59 -26.96292 152.27528 21712 ft 419 kts 298°
2026-05-06 07:00 -26.94885 152.24564 22088 ft 423 kts 298°
2026-05-06 07:00 -26.93629 152.21919 22484 ft 425 kts 298°
2026-05-06 07:00 -26.92241 152.18999 22887 ft 427 kts 298°
2026-05-06 07:00 -26.90852 152.16078 23316 ft 429 kts 298°
2026-05-06 07:01 -26.89429 152.13088 23767 ft 430 kts 298°
2026-05-06 07:01 -26.88026 152.10141 24194 ft 432 kts 297°
2026-05-06 07:01 -26.86746 152.07455 24596 ft 433 kts 297°
2026-05-06 07:01 -26.85320 152.04466 24989 ft 435 kts 298°
2026-05-06 07:02 -26.84232 152.02187 25302 ft 437 kts 297°
2026-05-06 07:02 -26.82799 151.99185 25737 ft 438 kts 297°
2026-05-06 07:02 -26.81629 151.96735 26028 ft 440 kts 297°
2026-05-06 07:02 -26.80170 151.93683 26065 ft 446 kts 297°
2026-05-06 07:03 -26.78703 151.90624 26061 ft 445 kts 297°
2026-05-06 07:03 -26.77249 151.87598 26065 ft 446 kts 297°
2026-05-06 07:03 -26.75781 151.84544 26063 ft 446 kts 297°
2026-05-06 07:03 -26.74308 151.81480 26062 ft 445 kts 297°
2026-05-06 07:04 -26.72839 151.78427 26069 ft 445 kts 297°
2026-05-06 07:04 -26.71369 151.75375 26063 ft 446 kts 297°
2026-05-06 07:04 -26.69917 151.72362 26065 ft 446 kts 297°
2026-05-06 07:04 -26.68449 151.69318 26058 ft 444 kts 297°
2026-05-06 07:05 -26.66978 151.66269 26064 ft 446 kts 297°
2026-05-06 07:05 -26.65505 151.63220 26065 ft 447 kts 297°
2026-05-06 07:05 -26.64025 151.60158 26063 ft 446 kts 297°
2026-05-06 07:05 -26.62550 151.57106 26069 ft 447 kts 297°
2026-05-06 07:06 -26.61080 151.54068 26065 ft 445 kts 297°
2026-05-06 07:06 -26.59607 151.51027 26064 ft 446 kts 297°
2026-05-06 07:06 -26.58125 151.47969 26070 ft 446 kts 297°
2026-05-06 07:06 -26.56652 151.44931 26062 ft 446 kts 297°
2026-05-06 07:07 -26.55174 151.41884 26061 ft 447 kts 297°
2026-05-06 07:07 -26.53694 151.38837 26061 ft 446 kts 297°
2026-05-06 07:07 -26.52230 151.35825 26056 ft 446 kts 297°
2026-05-06 07:07 -26.50746 151.32774 26069 ft 446 kts 298°
2026-05-06 07:08 -26.49261 151.29721 26063 ft 447 kts 297°
2026-05-06 07:08 -26.47862 151.26848 26064 ft 445 kts 298°
2026-05-06 07:08 -26.46383 151.23813 26059 ft 447 kts 297°
2026-05-06 07:08 -26.45110 151.21202 26062 ft 446 kts 298°
2026-05-06 07:09 -26.43798 151.18514 26055 ft 446 kts 298°
2026-05-06 07:09 -26.42308 151.15460 26055 ft 445 kts 298°
2026-05-06 07:09 -26.40843 151.12448 26051 ft 446 kts 298°
2026-05-06 07:09 -26.39353 151.09384 26047 ft 447 kts 298°
2026-05-06 07:10 -26.37881 151.06361 26046 ft 447 kts 297°
2026-05-06 07:10 -26.36399 151.03317 26050 ft 447 kts 297°
2026-05-06 07:10 -26.34909 151.00261 26047 ft 448 kts 297°
2026-05-06 07:10 -26.33433 150.97235 26039 ft 448 kts 297°
2026-05-06 07:11 -26.31944 150.94185 26045 ft 446 kts 297°
2026-05-06 07:11 -26.30453 150.91133 26046 ft 446 kts 298°
2026-05-06 07:11 -26.28987 150.88133 26040 ft 446 kts 297°
2026-05-06 07:11 -26.27502 150.85098 26045 ft 445 kts 297°
2026-05-06 07:12 -26.26011 150.82053 26043 ft 446 kts 298°
2026-05-06 07:12 -26.24543 150.79057 26044 ft 446 kts 298°
2026-05-06 07:12 -26.23054 150.76019 26041 ft 445 kts 297°
2026-05-06 07:12 -26.21561 150.72977 26042 ft 446 kts 297°
2026-05-06 07:13 -26.20093 150.69984 26043 ft 446 kts 297°
2026-05-06 07:13 -26.18605 150.66956 26040 ft 445 kts 297°
2026-05-06 07:13 -26.17120 150.63936 26039 ft 446 kts 297°
2026-05-06 07:13 -26.15632 150.60910 26033 ft 446 kts 297°
2026-05-06 07:14 -26.14152 150.57904 26035 ft 444 kts 297°
2026-05-06 07:14 -26.12670 150.54895 26034 ft 444 kts 297°
2026-05-06 07:14 -26.11184 150.51880 26029 ft 444 kts 297°
2026-05-06 07:14 -26.09697 150.48865 26032 ft 444 kts 297°
2026-05-06 07:15 -26.08212 150.45854 26029 ft 448 kts 297°
2026-05-06 07:15 -26.06699 150.42792 26312 ft 452 kts 297°
2026-05-06 07:15 -26.05199 150.39757 26938 ft 447 kts 297°
2026-05-06 07:15 -26.03711 150.36749 27544 ft 443 kts 297°
2026-05-06 07:16 -26.02245 150.33787 27976 ft 443 kts 297°
2026-05-06 07:16 -25.99276 150.27795 28035 ft 441 kts 297°
2026-05-06 07:17 -25.96531 150.22260 28034 ft 441 kts 297°
2026-05-06 07:17 -25.93846 150.16853 28031 ft 439 kts 297°
2026-05-06 07:18 -25.90902 150.10933 28033 ft 439 kts 297°
2026-05-06 07:18 -25.87960 150.05025 28032 ft 439 kts 297°
2026-05-06 07:19 -25.84988 149.99062 28033 ft 439 kts 297°
2026-05-06 07:19 -25.82447 149.93973 28040 ft 439 kts 297°
2026-05-06 07:20 -25.79827 149.88354 28028 ft 437 kts 291°
2026-05-06 07:20 -25.77668 149.82262 28030 ft 438 kts 290°
2026-05-06 07:21 -25.75450 149.75964 28031 ft 436 kts 290°
2026-05-06 07:21 -25.73239 149.69704 28032 ft 437 kts 290°
2026-05-06 07:22 -25.71017 149.63426 28037 ft 438 kts 290°
2026-05-06 07:22 -25.68809 149.57198 28036 ft 437 kts 290°
2026-05-06 07:23 -25.66591 149.50954 28031 ft 436 kts 290°
2026-05-06 07:23 -25.64355 149.44670 28037 ft 436 kts 290°
2026-05-06 07:24 -25.62132 149.38432 28039 ft 437 kts 290°
2026-05-06 07:24 -25.60069 149.32652 28062 ft 436 kts 291°
2026-05-06 07:25 -25.57875 149.26517 28054 ft 436 kts 290°
2026-05-06 07:25 -25.55945 149.21124 28059 ft 436 kts 291°
2026-05-06 07:26 -25.53835 149.15237 28065 ft 435 kts 291°
2026-05-06 07:26 -25.51612 149.09047 28068 ft 434 kts 291°
2026-05-06 07:27 -25.49373 149.02820 28083 ft 434 kts 291°
2026-05-06 07:27 -25.47147 148.96640 28086 ft 435 kts 291°
2026-05-06 07:28 -25.44907 148.90431 28080 ft 433 kts 291°
2026-05-06 07:28 -25.41562 148.81174 28066 ft 433 kts 290°
2026-05-06 07:29 -25.39325 148.74995 28056 ft 434 kts 290°
2026-05-06 07:29 -25.37086 148.68822 28066 ft 434 kts 290°
2026-05-06 07:30 -25.34848 148.62662 28065 ft 433 kts 291°
2026-05-06 07:30 -25.32605 148.56493 28070 ft 433 kts 290°
2026-05-06 07:31 -25.30362 148.50337 28084 ft 431 kts 291°
2026-05-06 07:31 -25.28129 148.44217 28086 ft 432 kts 290°
2026-05-06 07:32 -25.25873 148.38043 28086 ft 433 kts 290°
2026-05-06 07:32 -25.23629 148.31909 28097 ft 430 kts 291°
2026-05-06 07:33 -25.21489 148.26071 28102 ft 431 kts 291°
2026-05-06 07:33 -25.19410 148.20404 28102 ft 430 kts 291°
2026-05-06 07:34 -25.17367 148.14844 28103 ft 431 kts 291°
2026-05-06 07:34 -25.15121 148.08740 28105 ft 429 kts 291°
2026-05-06 07:35 -25.12878 148.02655 28105 ft 429 kts 291°
2026-05-06 07:35 -25.10631 147.96567 28118 ft 428 kts 291°
2026-05-06 07:36 -25.08388 147.90501 28111 ft 427 kts 291°
2026-05-06 07:36 -25.06153 147.84464 28107 ft 427 kts 291°
2026-05-06 07:37 -25.03911 147.78415 28109 ft 428 kts 291°
2026-05-06 07:37 -25.01666 147.72369 28101 ft 428 kts 291°
2026-05-06 07:38 -24.99405 147.66287 28102 ft 429 kts 291°
2026-05-06 07:38 -24.97152 147.60237 28099 ft 427 kts 291°
2026-05-06 07:39 -24.94912 147.54230 28098 ft 426 kts 291°
2026-05-06 07:39 -24.92634 147.48190 28084 ft 427 kts 292°
2026-05-06 07:40 -24.90200 147.42273 28071 ft 427 kts 292°
2026-05-06 07:40 -24.87796 147.36435 28067 ft 426 kts 292°
2026-05-06 07:41 -24.85446 147.30719 28085 ft 427 kts 293°
2026-05-06 07:41 -24.83268 147.25426 28087 ft 427 kts 293°
2026-05-06 07:42 -24.80946 147.19781 28075 ft 426 kts 292°
2026-05-06 07:42 -24.78505 147.13855 28078 ft 427 kts 293°
2026-05-06 07:43 -24.76538 147.09084 28071 ft 426 kts 292°
2026-05-06 07:43 -24.74255 147.03552 28075 ft 427 kts 292°
2026-05-06 07:44 -24.71797 146.97603 28071 ft 425 kts 292°
2026-05-06 07:44 -24.69354 146.91698 28071 ft 427 kts 292°
2026-05-06 07:45 -24.66895 146.85763 28075 ft 425 kts 292°
2026-05-06 07:45 -24.64442 146.79851 28085 ft 425 kts 292°
2026-05-06 07:46 -24.61991 146.73950 28085 ft 426 kts 293°
2026-05-06 07:46 -24.59519 146.68007 28073 ft 427 kts 293°
2026-05-06 07:47 -24.57056 146.62097 28077 ft 426 kts 292°
2026-05-06 07:47 -24.54587 146.56175 28066 ft 427 kts 292°
2026-05-06 07:48 -24.52124 146.50279 28066 ft 427 kts 293°
2026-05-06 07:48 -24.49641 146.44341 28063 ft 427 kts 293°
2026-05-06 07:49 -24.47180 146.38464 28056 ft 427 kts 293°
2026-05-06 07:49 -24.44702 146.32553 28072 ft 426 kts 293°
2026-05-06 07:50 -24.42279 146.26784 28072 ft 428 kts 293°
2026-05-06 07:50 -24.39994 146.21347 28067 ft 428 kts 293°
2026-05-06 07:51 -24.37675 146.15837 28060 ft 427 kts 293°
2026-05-06 07:51 -24.35179 146.09917 28061 ft 427 kts 293°
2026-05-06 07:52 -24.32695 146.04028 28067 ft 428 kts 293°
2026-05-06 07:52 -24.30210 145.98148 28058 ft 428 kts 293°
2026-05-06 07:53 -24.27697 145.92207 28065 ft 428 kts 293°
2026-05-06 07:53 -24.25200 145.86313 28059 ft 428 kts 293°
2026-05-06 07:54 -24.22706 145.80432 28052 ft 429 kts 294°
2026-05-06 07:54 -24.20202 145.74538 28054 ft 427 kts 293°
2026-05-06 07:55 -24.17688 145.68626 28048 ft 427 kts 294°
2026-05-06 07:55 -24.15188 145.62756 28046 ft 428 kts 294°
2026-05-06 07:56 -24.12670 145.56851 28046 ft 428 kts 294°
2026-05-06 07:56 -24.10161 145.50974 28046 ft 428 kts 293°
2026-05-06 07:57 -24.07634 145.45064 28041 ft 427 kts 294°
2026-05-06 07:57 -24.05123 145.39197 28044 ft 428 kts 294°
2026-05-06 07:58 -24.02596 145.33301 28049 ft 428 kts 294°
2026-05-06 07:58 -24.00065 145.27402 28040 ft 427 kts 294°
2026-05-06 07:59 -23.97663 145.21812 28045 ft 429 kts 294°
2026-05-06 07:59 -23.95310 145.16344 28043 ft 429 kts 294°
2026-05-06 08:00 -23.92760 145.10423 28038 ft 429 kts 294°
2026-05-06 08:00 -23.90236 145.04570 28038 ft 429 kts 294°
2026-05-06 08:01 -23.87696 144.98689 28042 ft 428 kts 294°
2026-05-06 08:01 -23.85279 144.93098 28041 ft 427 kts 294°
2026-05-06 08:02 -23.82846 144.87479 28037 ft 428 kts 294°
2026-05-06 08:02 -23.80465 144.81984 28038 ft 428 kts 294°
2026-05-06 08:03 -23.77894 144.76059 28039 ft 427 kts 294°
2026-05-06 08:03 -23.75349 144.70203 28033 ft 426 kts 294°
2026-05-06 08:04 -23.72804 144.64352 28033 ft 427 kts 294°
2026-05-06 08:04 -23.70257 144.58505 28030 ft 426 kts 294°
2026-05-06 08:05 -23.67716 144.52678 28029 ft 427 kts 294°
2026-05-06 08:05 -23.65162 144.46831 28028 ft 426 kts 294°
2026-05-06 08:06 -23.62616 144.41008 28028 ft 426 kts 294°
2026-05-06 08:06 -23.60072 144.35196 28026 ft 427 kts 294°
2026-05-06 08:07 -23.57504 144.29338 28043 ft 426 kts 294°
2026-05-06 08:07 -23.55076 144.23805 28042 ft 428 kts 294°
2026-05-06 08:08 -23.52713 144.18427 28040 ft 427 kts 294°
2026-05-06 08:08 -23.50157 144.12614 28041 ft 427 kts 294°
2026-05-06 08:09 -23.47599 144.06805 28040 ft 428 kts 294°
2026-05-06 08:09 -23.45020 144.00958 28038 ft 427 kts 294°
2026-05-06 08:10 -23.42450 143.95137 28037 ft 427 kts 294°
2026-05-06 08:10 -23.39875 143.89313 28037 ft 427 kts 294°
2026-05-06 08:11 -23.37308 143.83513 28035 ft 427 kts 294°
2026-05-06 08:11 -23.34745 143.77728 28033 ft 427 kts 294°
2026-05-06 08:12 -23.32164 143.71910 28034 ft 427 kts 294°
2026-05-06 08:12 -23.29589 143.66115 28034 ft 427 kts 294°
2026-05-06 08:13 -23.27004 143.60301 28033 ft 425 kts 294°
2026-05-06 08:13 -23.24427 143.54515 28033 ft 426 kts 294°
2026-05-06 08:14 -23.21842 143.48717 28032 ft 426 kts 294°
2026-05-06 08:14 -23.19267 143.42947 28032 ft 426 kts 294°
2026-05-06 08:15 -23.16669 143.37134 28034 ft 427 kts 294°
2026-05-06 08:15 -23.14089 143.31367 28053 ft 427 kts 295°
2026-05-06 08:16 -23.11558 143.25717 28054 ft 427 kts 295°
2026-05-06 08:16 -23.09183 143.20421 28054 ft 427 kts 295°
2026-05-06 08:17 -23.06639 143.14755 28052 ft 428 kts 295°
2026-05-06 08:17 -23.04024 143.08937 28051 ft 427 kts 295°
2026-05-06 08:18 -23.01430 143.03175 28048 ft 428 kts 295°
2026-05-06 08:18 -22.98767 142.97389 28051 ft 428 kts 296°
2026-05-06 08:19 -22.95959 142.91708 28039 ft 427 kts 297°
2026-05-06 08:19 -22.93153 142.86024 28035 ft 427 kts 296°
2026-05-06 08:20 -22.90350 142.80339 28032 ft 428 kts 296°
2026-05-06 08:20 -22.87593 142.74747 28033 ft 429 kts 296°
2026-05-06 08:21 -22.84836 142.69157 28030 ft 428 kts 296°
2026-05-06 08:21 -22.82038 142.63489 28028 ft 427 kts 296°
2026-05-06 08:22 -22.79510 142.58374 28023 ft 428 kts 296°
2026-05-06 08:22 -22.76715 142.52722 28024 ft 428 kts 296°
2026-05-06 08:23 -22.73898 142.47032 28020 ft 427 kts 296°
2026-05-06 08:23 -22.71096 142.41380 28018 ft 427 kts 296°
2026-05-06 08:24 -22.68295 142.35736 28019 ft 427 kts 296°
2026-05-06 08:24 -22.65572 142.30255 28041 ft 427 kts 297°
2026-05-06 08:25 -22.62846 142.24773 28046 ft 427 kts 297°
2026-05-06 08:25 -22.60073 142.19203 28041 ft 427 kts 297°
2026-05-06 08:26 -22.57250 142.13539 28039 ft 428 kts 297°
2026-05-06 08:26 -22.54428 142.07884 28034 ft 427 kts 297°
2026-05-06 08:27 -22.51619 142.02258 28031 ft 427 kts 297°
2026-05-06 08:27 -22.48787 141.96596 28031 ft 426 kts 297°
2026-05-06 08:28 -22.45982 141.90993 28041 ft 427 kts 297°
2026-05-06 08:28 -22.43149 141.85339 28040 ft 425 kts 297°
2026-05-06 08:29 -22.40328 141.79718 28041 ft 426 kts 296°
2026-05-06 08:29 -22.37518 141.74123 28036 ft 425 kts 297°
2026-05-06 08:30 -22.34698 141.68517 28041 ft 425 kts 296°
2026-05-06 08:30 -22.31879 141.62915 28039 ft 425 kts 296°
2026-05-06 08:31 -22.29069 141.57340 28040 ft 423 kts 296°
2026-05-06 08:31 -22.26237 141.51724 28039 ft 425 kts 296°
2026-05-06 08:32 -22.23428 141.46162 28044 ft 424 kts 296°
2026-05-06 08:32 -22.20598 141.40564 28041 ft 424 kts 296°
2026-05-06 08:33 -22.17783 141.35002 28042 ft 423 kts 296°
2026-05-06 08:33 -22.14955 141.29421 28065 ft 424 kts 297°
2026-05-06 08:34 -22.10947 141.21518 28070 ft 424 kts 297°
2026-05-06 08:35 -22.08119 141.15953 28071 ft 423 kts 297°
2026-05-06 08:35 -22.05281 141.10370 28068 ft 423 kts 297°
2026-05-06 08:36 -22.02466 141.04840 28065 ft 422 kts 297°
2026-05-06 08:36 -21.99633 140.99278 28066 ft 423 kts 296°
2026-05-06 08:37 -21.96881 140.93675 28063 ft 424 kts 296°
2026-05-06 08:37 -21.94142 140.88088 28062 ft 422 kts 296°
2026-05-06 08:38 -21.91405 140.82516 28061 ft 422 kts 296°
2026-05-06 08:38 -21.88650 140.76920 28070 ft 423 kts 296°
2026-05-06 08:39 -21.86000 140.71544 28067 ft 424 kts 296°
2026-05-06 08:39 -21.83428 140.66330 28063 ft 423 kts 296°
2026-05-06 08:40 -21.80676 140.60759 28070 ft 423 kts 296°
2026-05-06 08:40 -21.78086 140.55522 28064 ft 424 kts 296°
2026-05-06 08:41 -21.75318 140.49930 28065 ft 423 kts 296°
2026-05-06 08:41 -21.72546 140.44338 28063 ft 423 kts 296°
2026-05-06 08:42 -21.69772 140.38745 28068 ft 424 kts 296°
2026-05-06 08:42 -21.67001 140.33165 28080 ft 424 kts 296°
2026-05-06 08:43 -21.64222 140.27576 28084 ft 424 kts 296°
2026-05-06 08:43 -21.61673 140.22455 28080 ft 424 kts 296°
2026-05-06 08:44 -21.58944 140.16975 28083 ft 423 kts 297°
2026-05-06 08:44 -21.56147 140.11368 28077 ft 424 kts 297°
2026-05-06 08:45 -21.53363 140.05791 28076 ft 425 kts 296°
2026-05-06 08:45 -21.50577 140.00214 28080 ft 426 kts 297°
2026-05-06 08:46 -21.47773 139.94611 28081 ft 425 kts 297°
2026-05-06 08:46 -21.44995 139.89064 28076 ft 425 kts 297°
2026-05-06 08:47 -21.42188 139.83462 28078 ft 424 kts 297°
2026-05-06 08:47 -21.39395 139.77898 28078 ft 426 kts 297°
2026-05-06 08:48 -21.36584 139.72302 28078 ft 425 kts 296°
2026-05-06 08:48 -21.33778 139.66721 28077 ft 426 kts 296°
2026-05-06 08:49 -21.30978 139.61160 28074 ft 425 kts 297°
2026-05-06 08:49 -21.28157 139.55562 28078 ft 426 kts 297°
2026-05-06 08:50 -21.25351 139.50000 28075 ft 426 kts 297°
2026-05-06 08:50 -21.22551 139.44453 28071 ft 425 kts 296°
2026-05-06 08:51 -21.19734 139.38881 28065 ft 424 kts 297°
2026-05-06 08:51 -21.16909 139.33298 28085 ft 424 kts 297°
2026-05-06 08:52 -21.14115 139.27782 28082 ft 425 kts 297°
2026-05-06 08:52 -21.11514 139.22652 28083 ft 424 kts 297°
2026-05-06 08:53 -21.08742 139.17191 28077 ft 425 kts 297°
2026-05-06 08:53 -21.05913 139.11621 28074 ft 425 kts 297°
2026-05-06 08:54 -21.03107 139.06104 28069 ft 424 kts 297°
2026-05-06 08:54 -21.00257 139.00532 28058 ft 426 kts 299°
2026-05-06 08:55 -20.96936 138.95283 28056 ft 429 kts 302°
2026-05-06 08:55 -20.93518 138.90030 28059 ft 429 kts 302°
2026-05-06 08:56 -20.90126 138.84822 28061 ft 428 kts 302°
2026-05-06 08:56 -20.86710 138.79579 28067 ft 429 kts 302°
2026-05-06 08:57 -20.83408 138.74518 28062 ft 429 kts 302°
2026-05-06 08:57 -20.80182 138.69575 28068 ft 429 kts 302°
2026-05-06 08:58 -20.76766 138.64349 28060 ft 429 kts 302°
2026-05-06 08:58 -20.73371 138.59158 28058 ft 429 kts 302°
2026-05-06 08:59 -20.69947 138.53928 28063 ft 429 kts 302°
2026-05-06 08:59 -20.66518 138.48695 28054 ft 429 kts 302°
2026-05-06 09:00 -20.63087 138.43463 28050 ft 430 kts 302°
2026-05-06 09:00 -20.59665 138.38249 28054 ft 430 kts 302°
2026-05-06 09:01 -20.56224 138.33012 28073 ft 431 kts 303°
2026-05-06 09:01 -20.52793 138.27794 28065 ft 431 kts 303°
2026-05-06 09:02 -20.49807 138.23257 28061 ft 430 kts 303°
2026-05-06 09:02 -20.46362 138.18028 28066 ft 431 kts 303°
2026-05-06 09:03 -20.42912 138.12796 28071 ft 430 kts 303°
2026-05-06 09:03 -20.39480 138.07596 28068 ft 430 kts 303°
2026-05-06 09:04 -20.36043 138.02393 28073 ft 430 kts 303°
2026-05-06 09:04 -20.32606 137.97192 28072 ft 430 kts 303°
2026-05-06 09:05 -20.29154 137.91975 28073 ft 430 kts 303°
2026-05-06 09:05 -20.25715 137.86783 28070 ft 431 kts 303°
2026-05-06 09:06 -20.22247 137.81552 28067 ft 431 kts 303°
2026-05-06 09:06 -20.18801 137.76358 28066 ft 430 kts 303°
2026-05-06 09:07 -20.15347 137.71156 28064 ft 430 kts 303°
2026-05-06 09:07 -20.11895 137.65962 28060 ft 431 kts 303°
2026-05-06 09:08 -20.08438 137.60765 28065 ft 432 kts 303°
2026-05-06 09:08 -20.04959 137.55541 28066 ft 433 kts 303°
2026-05-06 09:09 -20.01496 137.50345 28056 ft 431 kts 303°
2026-05-06 09:09 -19.98005 137.45110 28054 ft 432 kts 303°
2026-05-06 09:10 -19.94537 137.39914 28052 ft 433 kts 303°
2026-05-06 09:10 -19.91053 137.34700 28051 ft 432 kts 303°
2026-05-06 09:11 -19.87583 137.29512 28081 ft 433 kts 303°
2026-05-06 09:11 -19.84576 137.25020 28073 ft 433 kts 303°
2026-05-06 09:12 -19.81099 137.19829 28080 ft 433 kts 303°
2026-05-06 09:12 -19.77888 137.15037 28078 ft 432 kts 303°
2026-05-06 09:13 -19.74395 137.09831 28080 ft 434 kts 303°
2026-05-06 09:13 -19.71085 137.04903 28070 ft 433 kts 303°
2026-05-06 09:14 -19.67654 136.99797 28069 ft 433 kts 303°
2026-05-06 09:14 -19.64144 136.94580 28065 ft 432 kts 303°
2026-05-06 09:15 -19.60656 136.89400 28065 ft 433 kts 303°
2026-05-06 09:15 -19.57172 136.84227 28065 ft 433 kts 303°
2026-05-06 09:16 -19.53676 136.79044 28061 ft 433 kts 303°
2026-05-06 09:16 -19.50154 136.73827 28062 ft 435 kts 304°
2026-05-06 09:17 -19.46661 136.68655 28055 ft 434 kts 304°
2026-05-06 09:17 -19.43136 136.63441 28054 ft 434 kts 304°
2026-05-06 09:18 -19.39623 136.58252 28053 ft 435 kts 303°
2026-05-06 09:18 -19.36106 136.53058 28050 ft 436 kts 303°
2026-05-06 09:19 -19.32573 136.47845 28049 ft 436 kts 304°
2026-05-06 09:19 -19.29026 136.42618 28046 ft 436 kts 304°
2026-05-06 09:20 -19.25491 136.37411 28044 ft 436 kts 304°
2026-05-06 09:20 -19.21944 136.32191 28065 ft 438 kts 304°
2026-05-06 09:21 -19.18407 136.26993 28063 ft 436 kts 304°
2026-05-06 09:21 -19.14848 136.21764 28061 ft 437 kts 304°
2026-05-06 09:22 -19.11302 136.16559 28062 ft 437 kts 304°
2026-05-06 09:22 -19.07768 136.11377 28059 ft 437 kts 304°
2026-05-06 09:23 -19.04203 136.06154 28055 ft 437 kts 304°
2026-05-06 09:23 -19.00655 136.00946 28054 ft 436 kts 302°
2026-05-06 09:24 -18.97743 135.95392 28052 ft 436 kts 297°
2026-05-06 09:24 -18.94932 135.89693 28057 ft 437 kts 297°
2026-05-06 09:25 -18.92133 135.84018 28050 ft 435 kts 297°
2026-05-06 09:25 -18.89336 135.78352 28053 ft 436 kts 297°
2026-05-06 09:26 -18.86522 135.72656 28055 ft 437 kts 297°
2026-05-06 09:26 -18.83710 135.66966 28056 ft 439 kts 297°
2026-05-06 09:27 -18.80908 135.61304 28047 ft 438 kts 297°
2026-05-06 09:27 -18.78081 135.55595 28048 ft 438 kts 297°
2026-05-06 09:28 -18.75273 135.49931 28046 ft 437 kts 297°
2026-05-06 09:28 -18.72448 135.44238 28045 ft 437 kts 297°
2026-05-06 09:29 -18.69628 135.38559 28057 ft 439 kts 297°
2026-05-06 09:29 -18.66801 135.32871 28067 ft 438 kts 297°
2026-05-06 09:30 -18.63984 135.27210 28064 ft 439 kts 297°
2026-05-06 09:30 -18.61148 135.21516 28068 ft 438 kts 297°
2026-05-06 09:31 -18.58323 135.15849 28069 ft 437 kts 297°
2026-05-06 09:31 -18.55510 135.10210 28062 ft 438 kts 297°
2026-05-06 09:32 -18.52677 135.04538 28050 ft 438 kts 297°
2026-05-06 09:32 -18.49814 134.98810 28056 ft 440 kts 297°
2026-05-06 09:33 -18.46978 134.93143 28054 ft 438 kts 297°
2026-05-06 09:33 -18.44143 134.87482 28051 ft 438 kts 297°
2026-05-06 09:34 -18.41295 134.81801 28058 ft 438 kts 297°
2026-05-06 09:34 -18.38448 134.76126 28055 ft 439 kts 297°
2026-05-06 09:35 -18.35606 134.70468 28051 ft 438 kts 297°
2026-05-06 09:35 -18.32767 134.64819 28053 ft 438 kts 297°
2026-05-06 09:36 -18.29920 134.59160 28044 ft 438 kts 297°
2026-05-06 09:36 -18.27067 134.53496 28049 ft 439 kts 297°
2026-05-06 09:37 -18.24221 134.47849 28046 ft 439 kts 297°
2026-05-06 09:37 -18.21353 134.42165 28052 ft 438 kts 297°
2026-05-06 09:38 -18.18504 134.36522 28044 ft 440 kts 297°
2026-05-06 09:38 -18.15633 134.30841 28063 ft 439 kts 297°
2026-05-06 09:39 -18.12774 134.25191 28057 ft 439 kts 297°
2026-05-06 09:39 -18.09900 134.19513 28060 ft 438 kts 297°
2026-05-06 09:40 -18.07046 134.13882 28060 ft 438 kts 297°
2026-05-06 09:40 -18.02749 134.05412 28057 ft 438 kts 297°
2026-05-06 09:41 -17.99880 133.99765 28049 ft 439 kts 297°
2026-05-06 09:41 -17.97079 133.94095 28056 ft 438 kts 296°
2026-05-06 09:42 -17.94285 133.88415 28052 ft 439 kts 296°
2026-05-06 09:42 -17.91481 133.82724 28053 ft 439 kts 296°
2026-05-06 09:43 -17.88668 133.77025 28061 ft 438 kts 296°
2026-05-06 09:43 -17.85868 133.71356 28054 ft 438 kts 296°
2026-05-06 09:44 -17.83050 133.65659 28060 ft 440 kts 296°
2026-05-06 09:44 -17.80235 133.59973 28045 ft 439 kts 296°
2026-05-06 09:45 -17.77430 133.54312 28047 ft 439 kts 296°
2026-05-06 09:45 -17.74614 133.48634 28053 ft 439 kts 296°
2026-05-06 09:46 -17.71789 133.42944 28044 ft 440 kts 296°
2026-05-06 09:46 -17.68975 133.37280 28045 ft 441 kts 296°
2026-05-06 09:47 -17.66149 133.31599 28055 ft 442 kts 296°
2026-05-06 09:47 -17.63315 133.25906 28056 ft 439 kts 296°
2026-05-06 09:48 -17.60485 133.20224 28051 ft 438 kts 297°
2026-05-06 09:48 -17.57665 133.14571 28059 ft 440 kts 297°
2026-05-06 09:49 -17.54827 133.08885 28060 ft 439 kts 296°
2026-05-06 09:49 -17.51987 133.03198 28049 ft 440 kts 296°
2026-05-06 09:50 -17.49161 132.97548 28051 ft 440 kts 297°
2026-05-06 09:50 -17.46319 132.91867 28051 ft 439 kts 297°
2026-05-06 09:51 -17.43496 132.86230 28043 ft 439 kts 297°
2026-05-06 09:51 -17.40649 132.80551 28041 ft 441 kts 296°
2026-05-06 09:52 -17.37806 132.74886 28039 ft 440 kts 296°
2026-05-06 09:52 -17.34943 132.69185 28047 ft 441 kts 297°
2026-05-06 09:53 -17.32099 132.63527 28039 ft 440 kts 296°
2026-05-06 09:53 -17.29251 132.57866 28036 ft 441 kts 296°
2026-05-06 09:54 -17.26412 132.52226 28031 ft 439 kts 296°
2026-05-06 09:54 -17.23543 132.46535 28030 ft 442 kts 296°
2026-05-06 09:55 -17.20679 132.40857 28034 ft 441 kts 296°
2026-05-06 09:55 -17.17822 132.35196 28025 ft 442 kts 296°
2026-05-06 09:56 -17.14958 132.29527 28050 ft 441 kts 297°
2026-05-06 09:56 -17.12100 132.23874 28043 ft 442 kts 296°
2026-05-06 09:57 -17.09210 132.18166 28054 ft 441 kts 296°
2026-05-06 09:57 -17.06353 132.12524 28044 ft 442 kts 297°
2026-05-06 09:58 -17.03470 132.06839 28045 ft 442 kts 296°
2026-05-06 09:58 -17.00593 132.01169 28048 ft 442 kts 296°
2026-05-06 09:59 -16.97777 131.95517 28042 ft 441 kts 295°
2026-05-06 09:59 -16.94968 131.89810 28038 ft 442 kts 296°
2026-05-06 10:00 -16.92170 131.84135 28035 ft 442 kts 296°
2026-05-06 10:00 -16.89351 131.78424 28034 ft 443 kts 296°
2026-05-06 10:01 -16.86525 131.72707 28037 ft 442 kts 296°
2026-05-06 10:01 -16.83705 131.67007 28029 ft 444 kts 296°
2026-05-06 10:02 -16.80857 131.61255 28027 ft 443 kts 296°
2026-05-06 10:02 -16.78032 131.55554 28029 ft 444 kts 296°
2026-05-06 10:03 -16.75200 131.49847 28018 ft 445 kts 296°
2026-05-06 10:03 -16.72367 131.44141 28015 ft 444 kts 296°
2026-05-06 10:04 -16.69515 131.38402 28016 ft 446 kts 296°
2026-05-06 10:04 -16.66677 131.32698 28026 ft 445 kts 296°
2026-05-06 10:05 -16.63829 131.26976 28026 ft 446 kts 296°
2026-05-06 10:05 -16.60986 131.21271 28023 ft 445 kts 296°
2026-05-06 10:06 -16.58122 131.15527 28024 ft 445 kts 296°
2026-05-06 10:06 -16.55281 131.09836 28022 ft 444 kts 296°
2026-05-06 10:07 -16.52430 131.04128 28022 ft 444 kts 296°
2026-05-06 10:07 -16.49572 130.98410 28016 ft 446 kts 296°
2026-05-06 10:08 -16.46709 130.92688 28014 ft 445 kts 296°
2026-05-06 10:08 -16.43856 130.86992 28011 ft 446 kts 296°
2026-05-06 10:09 -16.40982 130.81256 28011 ft 447 kts 296°
2026-05-06 10:09 -16.38107 130.75526 28007 ft 447 kts 296°
2026-05-06 10:10 -16.35236 130.69807 28007 ft 446 kts 296°
2026-05-06 10:10 -16.32363 130.64088 28008 ft 447 kts 296°
2026-05-06 10:11 -16.29485 130.58366 28013 ft 446 kts 296°
2026-05-06 10:11 -16.26596 130.52623 28017 ft 447 kts 296°
2026-05-06 10:12 -16.23719 130.46912 28016 ft 447 kts 296°
2026-05-06 10:12 -16.20838 130.41197 28012 ft 447 kts 296°
2026-05-06 10:13 -16.17944 130.35461 28005 ft 448 kts 296°
2026-05-06 10:13 -16.15044 130.29718 28023 ft 449 kts 296°
2026-05-06 10:14 -16.12136 130.23964 28010 ft 449 kts 296°
2026-05-06 10:14 -16.09235 130.18228 28011 ft 449 kts 296°
2026-05-06 10:15 -16.06331 130.12491 28008 ft 449 kts 296°
2026-05-06 10:15 -16.03429 130.06763 28005 ft 449 kts 296°
2026-05-06 10:16 -16.01965 130.03874 27997 ft 450 kts 296°
2026-05-06 10:16 -16.00500 130.00984 28006 ft 450 kts 296°
2026-05-06 10:16 -15.99076 129.98129 27996 ft 449 kts 295°
2026-05-06 10:16 -15.97699 129.95222 27995 ft 449 kts 294°
2026-05-06 10:17 -15.96309 129.92279 27991 ft 449 kts 294°
2026-05-06 10:17 -15.94939 129.89381 27989 ft 449 kts 294°
2026-05-06 10:17 -15.93566 129.86484 27990 ft 449 kts 294°
2026-05-06 10:17 -15.92195 129.83592 27987 ft 449 kts 294°
2026-05-06 10:18 -15.90808 129.80670 27985 ft 449 kts 294°
2026-05-06 10:18 -15.89428 129.77765 27986 ft 449 kts 294°
2026-05-06 10:18 -15.88050 129.74867 27985 ft 449 kts 294°
2026-05-06 10:18 -15.86670 129.71967 27983 ft 449 kts 294°
2026-05-06 10:19 -15.85287 129.69061 27986 ft 450 kts 294°
2026-05-06 10:19 -15.83904 129.66159 27988 ft 449 kts 294°
2026-05-06 10:19 -15.82504 129.63222 27989 ft 450 kts 294°
2026-05-06 10:19 -15.81117 129.60312 27989 ft 450 kts 294°
2026-05-06 10:20 -15.79740 129.57426 27990 ft 450 kts 294°
2026-05-06 10:20 -15.78337 129.54488 27992 ft 450 kts 294°
2026-05-06 10:20 -15.76951 129.51585 27994 ft 450 kts 294°
2026-05-06 10:20 -15.75569 129.48692 27994 ft 450 kts 294°
2026-05-06 10:21 -15.74178 129.45781 27994 ft 451 kts 294°
2026-05-06 10:21 -15.72788 129.42876 27991 ft 451 kts 294°
2026-05-06 10:21 -15.71380 129.39932 27991 ft 451 kts 294°
2026-05-06 10:21 -15.69992 129.37032 27997 ft 451 kts 294°
2026-05-06 10:22 -15.67207 129.31216 28020 ft 452 kts 294°
2026-05-06 10:22 -15.64405 129.25371 28028 ft 452 kts 294°
2026-05-06 10:23 -15.61617 129.19557 28015 ft 452 kts 294°
2026-05-06 10:23 -15.58824 129.13741 28008 ft 452 kts 294°
2026-05-06 10:24 -15.56013 129.07890 28004 ft 453 kts 294°
2026-05-06 10:24 -15.53218 129.02078 27993 ft 452 kts 294°
2026-05-06 10:25 -15.51813 128.99158 27992 ft 453 kts 294°
2026-05-06 10:25 -15.50407 128.96237 27992 ft 453 kts 294°
2026-05-06 10:25 -15.49005 128.93327 27991 ft 453 kts 294°
2026-05-06 10:25 -15.47596 128.90401 27991 ft 454 kts 294°
2026-05-06 10:26 -15.46186 128.87477 27991 ft 453 kts 294°
2026-05-06 10:26 -15.44772 128.84544 27993 ft 453 kts 294°
2026-05-06 10:26 -15.43374 128.81644 27990 ft 454 kts 294°
2026-05-06 10:26 -15.41963 128.78722 27996 ft 454 kts 294°
2026-05-06 10:27 -15.40545 128.75784 28000 ft 454 kts 294°
2026-05-06 10:27 -15.39131 128.72856 27998 ft 454 kts 294°
2026-05-06 10:27 -15.37721 128.69939 27995 ft 454 kts 294°
2026-05-06 10:27 -15.36308 128.67015 27998 ft 456 kts 294°
2026-05-06 10:28 -15.34909 128.64121 27997 ft 454 kts 294°
2026-05-06 10:28 -15.33496 128.61198 27999 ft 455 kts 294°
2026-05-06 10:28 -15.32062 128.58237 28000 ft 455 kts 294°
2026-05-06 10:28 -15.30651 128.55322 28001 ft 454 kts 294°
2026-05-06 10:29 -15.29244 128.52416 27996 ft 455 kts 294°
2026-05-06 10:29 -15.27830 128.49498 27994 ft 456 kts 294°
2026-05-06 10:29 -15.26405 128.46558 27996 ft 456 kts 294°
2026-05-06 10:29 -15.24984 128.43628 27998 ft 455 kts 294°
2026-05-06 10:30 -15.23556 128.40685 27989 ft 455 kts 294°
2026-05-06 10:30 -15.22141 128.37769 27986 ft 456 kts 294°
2026-05-06 10:30 -15.20727 128.34856 27981 ft 455 kts 294°
2026-05-06 10:30 -15.19296 128.31909 27990 ft 456 kts 294°
2026-05-06 10:31 -15.17882 128.28999 27986 ft 456 kts 294°
2026-05-06 10:31 -15.16458 128.26070 27980 ft 456 kts 294°
2026-05-06 10:31 -15.15040 128.23152 27981 ft 456 kts 294°
2026-05-06 10:31 -15.13604 128.20201 27975 ft 456 kts 294°
2026-05-06 10:32 -15.12185 128.17285 27981 ft 457 kts 294°
2026-05-06 10:32 -15.10760 128.14359 27980 ft 457 kts 294°
2026-05-06 10:32 -15.09325 128.11412 27984 ft 456 kts 294°
2026-05-06 10:32 -15.07891 128.08469 27991 ft 456 kts 294°
2026-05-06 10:33 -15.06477 128.05569 27987 ft 457 kts 294°
2026-05-06 10:33 -15.05052 128.02644 27995 ft 456 kts 294°
2026-05-06 10:33 -15.02199 127.96798 28002 ft 457 kts 294°
2026-05-06 10:34 -14.99326 127.90915 28007 ft 456 kts 294°
2026-05-06 10:34 -14.96471 127.85071 28010 ft 458 kts 294°
2026-05-06 10:35 -14.93612 127.79226 28009 ft 457 kts 294°
2026-05-06 10:35 -14.90735 127.73347 28005 ft 458 kts 294°
2026-05-06 10:36 -14.87854 127.67467 28006 ft 459 kts 294°
2026-05-06 10:36 -14.85111 127.61517 28008 ft 458 kts 290°
2026-05-06 10:37 -14.82685 127.55411 28005 ft 458 kts 290°
2026-05-06 10:37 -14.80269 127.49372 28011 ft 457 kts 290°
2026-05-06 10:38 -14.77834 127.43323 28014 ft 457 kts 290°
2026-05-06 10:38 -14.75385 127.37262 28017 ft 457 kts 290°
2026-05-06 10:39 -14.72936 127.31218 28024 ft 457 kts 290°
2026-05-06 10:39 -14.70467 127.25137 28023 ft 457 kts 290°
2026-05-06 10:40 -14.68013 127.19099 28017 ft 458 kts 290°
2026-05-06 10:40 -14.65551 127.13049 28011 ft 458 kts 290°
2026-05-06 10:41 -14.63083 127.06993 28009 ft 459 kts 290°
2026-05-06 10:41 -14.60602 127.00909 28005 ft 459 kts 290°
2026-05-06 10:42 -14.58123 126.94836 28004 ft 460 kts 290°
2026-05-06 10:42 -14.55646 126.88776 28000 ft 460 kts 290°
2026-05-06 10:43 -14.54407 126.85746 27999 ft 459 kts 290°
2026-05-06 10:43 -14.53164 126.82707 27999 ft 460 kts 290°
2026-05-06 10:43 -14.51932 126.79696 27996 ft 460 kts 290°
2026-05-06 10:44 -14.49445 126.73623 27986 ft 459 kts 290°
2026-05-06 10:44 -14.48190 126.70562 27980 ft 460 kts 290°
2026-05-06 10:44 -14.46947 126.67529 27979 ft 461 kts 290°
2026-05-06 10:44 -14.45705 126.64499 27974 ft 461 kts 290°
2026-05-06 10:45 -14.44463 126.61474 27972 ft 460 kts 290°
2026-05-06 10:45 -14.43203 126.58404 27972 ft 460 kts 290°
2026-05-06 10:45 -14.41972 126.55405 27970 ft 460 kts 290°
2026-05-06 10:45 -14.40724 126.52367 27966 ft 460 kts 290°
2026-05-06 10:46 -14.39465 126.49303 27962 ft 460 kts 290°
2026-05-06 10:46 -14.38224 126.46287 27962 ft 459 kts 290°
2026-05-06 10:46 -14.36979 126.43260 27961 ft 461 kts 290°
2026-05-06 10:46 -14.35729 126.40221 27960 ft 462 kts 290°
2026-05-06 10:47 -14.34475 126.37175 27960 ft 461 kts 290°
2026-05-06 10:47 -14.33220 126.34129 27965 ft 461 kts 290°
2026-05-06 10:47 -14.31982 126.31125 27972 ft 461 kts 290°
2026-05-06 10:47 -14.30718 126.28056 27962 ft 463 kts 290°
2026-05-06 10:48 -14.29464 126.25017 27957 ft 463 kts 290°
2026-05-06 10:48 -14.28193 126.21935 27955 ft 464 kts 290°
2026-05-06 10:48 -14.26938 126.18895 27954 ft 463 kts 290°
2026-05-06 10:48 -14.25689 126.15871 27950 ft 462 kts 290°
2026-05-06 10:49 -14.24415 126.12785 27945 ft 464 kts 290°
2026-05-06 10:49 -14.23165 126.09762 27947 ft 462 kts 290°
2026-05-06 10:49 -14.21899 126.06700 27944 ft 462 kts 290°
2026-05-06 10:49 -14.20652 126.03685 27946 ft 463 kts 290°
2026-05-06 10:50 -14.19382 126.00614 27943 ft 463 kts 290°
2026-05-06 10:50 -14.18133 125.97599 27942 ft 462 kts 290°
2026-05-06 10:50 -14.16864 125.94534 27938 ft 463 kts 290°
2026-05-06 10:50 -14.15596 125.91473 27942 ft 463 kts 290°
2026-05-06 10:51 -14.14342 125.88447 27938 ft 463 kts 290°
2026-05-06 10:51 -14.13075 125.85392 27936 ft 464 kts 290°
2026-05-06 10:51 -14.11806 125.82333 27934 ft 464 kts 290°
2026-05-06 10:51 -14.10539 125.79277 27931 ft 465 kts 290°
2026-05-06 10:52 -14.09274 125.76231 27928 ft 464 kts 290°
2026-05-06 10:52 -14.08010 125.73188 27932 ft 464 kts 290°
2026-05-06 10:52 -14.06752 125.70161 27933 ft 462 kts 290°
2026-05-06 10:52 -14.05475 125.67088 27928 ft 463 kts 290°
2026-05-06 10:53 -14.04218 125.64065 27931 ft 464 kts 290°
2026-05-06 10:53 -14.02956 125.61031 27932 ft 462 kts 290°
2026-05-06 10:53 -14.01678 125.57961 27934 ft 463 kts 290°
2026-05-06 10:53 -14.00412 125.54919 27937 ft 464 kts 290°
2026-05-06 10:54 -13.99147 125.51884 27939 ft 463 kts 290°
2026-05-06 10:54 -13.97881 125.48846 27945 ft 463 kts 290°
2026-05-06 10:54 -13.96621 125.45822 27946 ft 463 kts 290°
2026-05-06 10:54 -13.95338 125.42744 27943 ft 464 kts 290°
2026-05-06 10:55 -13.94072 125.39709 27944 ft 464 kts 290°
2026-05-06 10:55 -13.92806 125.36678 27944 ft 463 kts 290°
2026-05-06 10:55 -13.91540 125.33644 27951 ft 463 kts 290°
2026-05-06 10:55 -13.90270 125.30606 27957 ft 464 kts 290°
2026-05-06 10:56 -13.88988 125.27536 27955 ft 464 kts 290°
2026-05-06 10:56 -13.87718 125.24500 27953 ft 464 kts 290°
2026-05-06 10:56 -13.86436 125.21433 27952 ft 465 kts 290°
2026-05-06 10:56 -13.85164 125.18392 27951 ft 465 kts 290°
2026-05-06 10:57 -13.83888 125.15344 27953 ft 465 kts 290°
2026-05-06 10:57 -13.82612 125.12297 27949 ft 465 kts 290°
2026-05-06 10:57 -13.81323 125.09218 27951 ft 466 kts 290°
2026-05-06 10:57 -13.80049 125.06178 27954 ft 465 kts 290°
2026-05-06 10:58 -13.78772 125.03133 27950 ft 465 kts 290°
2026-05-06 10:58 -13.77496 125.00092 27951 ft 466 kts 290°
2026-05-06 10:58 -13.76216 124.97041 27949 ft 466 kts 290°
2026-05-06 10:58 -13.74923 124.93960 27950 ft 465 kts 290°
2026-05-06 10:59 -13.73657 124.90944 27948 ft 465 kts 290°
2026-05-06 10:59 -13.72366 124.87872 27946 ft 467 kts 290°
2026-05-06 10:59 -13.71088 124.84830 27951 ft 466 kts 290°
2026-05-06 10:59 -13.69800 124.81767 27945 ft 466 kts 290°
2026-05-06 11:00 -13.68512 124.78704 27950 ft 467 kts 290°
2026-05-06 11:00 -13.67220 124.75634 27945 ft 466 kts 290°
2026-05-06 11:00 -13.65948 124.72611 27944 ft 467 kts 290°
2026-05-06 11:00 -13.64652 124.69534 27945 ft 467 kts 290°
2026-05-06 11:01 -13.63358 124.66461 27945 ft 467 kts 290°
2026-05-06 11:01 -13.62075 124.63416 27941 ft 467 kts 290°
2026-05-06 11:01 -13.60793 124.60376 27942 ft 467 kts 290°
2026-05-06 11:01 -13.59493 124.57295 27944 ft 467 kts 290°
2026-05-06 11:02 -13.58212 124.54257 27940 ft 467 kts 290°
2026-05-06 11:02 -13.56907 124.51165 27939 ft 468 kts 290°
2026-05-06 11:02 -13.55621 124.48120 27938 ft 468 kts 290°
2026-05-06 11:02 -13.54332 124.45071 27937 ft 467 kts 290°
2026-05-06 11:03 -13.53033 124.41996 27934 ft 467 kts 290°
2026-05-06 11:03 -13.51744 124.38947 27931 ft 468 kts 290°
2026-05-06 11:03 -13.50440 124.35863 27928 ft 468 kts 290°
2026-05-06 11:03 -13.49145 124.32802 27937 ft 468 kts 290°
2026-05-06 11:04 -13.47850 124.29744 27936 ft 469 kts 290°
2026-05-06 11:04 -13.46553 124.26681 27934 ft 470 kts 290°
2026-05-06 11:04 -13.45252 124.23608 27935 ft 470 kts 290°
2026-05-06 11:04 -13.43955 124.20548 27935 ft 470 kts 290°
2026-05-06 11:05 -13.42656 124.17485 27935 ft 469 kts 290°
2026-05-06 11:05 -13.41360 124.14428 27936 ft 468 kts 290°
2026-05-06 11:05 -13.40063 124.11372 27934 ft 468 kts 290°
2026-05-06 11:05 -13.38750 124.08278 27930 ft 469 kts 290°
2026-05-06 11:06 -13.37449 124.05212 27934 ft 469 kts 290°
2026-05-06 11:06 -13.36149 124.02155 27932 ft 469 kts 290°
2026-05-06 11:06 -13.34848 123.99092 27926 ft 468 kts 290°
2026-05-06 11:06 -13.33546 123.96029 27933 ft 470 kts 290°
2026-05-06 11:07 -13.32244 123.92966 27930 ft 469 kts 290°
2026-05-06 11:07 -13.30941 123.89904 27928 ft 469 kts 290°
2026-05-06 11:07 -13.29636 123.86839 27931 ft 469 kts 290°
2026-05-06 11:07 -13.28340 123.83794 27928 ft 470 kts 290°
2026-05-06 11:08 -13.27026 123.80710 27929 ft 470 kts 290°
2026-05-06 11:08 -13.25712 123.77626 27927 ft 471 kts 290°
2026-05-06 11:08 -13.24415 123.74581 27928 ft 470 kts 290°
2026-05-06 11:08 -13.23094 123.71484 27930 ft 471 kts 290°
2026-05-06 11:09 -13.21777 123.68397 27928 ft 470 kts 290°
2026-05-06 11:09 -13.20476 123.65349 27929 ft 470 kts 290°
2026-05-06 11:09 -13.19157 123.62259 27924 ft 470 kts 290°
2026-05-06 11:09 -13.17856 123.59212 27927 ft 471 kts 290°
2026-05-06 11:10 -13.16544 123.56142 27926 ft 471 kts 290°
2026-05-06 11:10 -13.15224 123.53053 27927 ft 472 kts 290°
2026-05-06 11:10 -13.13909 123.49979 27926 ft 471 kts 290°
2026-05-06 11:10 -13.12595 123.46907 27926 ft 471 kts 290°
2026-05-06 11:11 -13.11282 123.43838 27924 ft 470 kts 290°
2026-05-06 11:11 -13.09970 123.40773 27925 ft 472 kts 290°
2026-05-06 11:11 -13.08654 123.37700 27927 ft 471 kts 290°
2026-05-06 11:11 -13.07334 123.34618 27929 ft 472 kts 290°
2026-05-06 11:12 -13.06021 123.31555 27939 ft 471 kts 290°
2026-05-06 11:12 -13.04708 123.28494 27940 ft 471 kts 290°
2026-05-06 11:12 -13.03389 123.25416 27943 ft 472 kts 290°
2026-05-06 11:12 -13.02071 123.22347 27946 ft 471 kts 290°
2026-05-06 11:13 -13.00748 123.19263 27948 ft 471 kts 290°
2026-05-06 11:13 -12.99436 123.16207 27954 ft 472 kts 290°
2026-05-06 11:13 -12.98099 123.13094 27951 ft 473 kts 290°
2026-05-06 11:13 -12.96781 123.10029 27953 ft 472 kts 290°
2026-05-06 11:14 -12.95461 123.06957 27953 ft 474 kts 290°
2026-05-06 11:14 -12.94122 123.03844 27954 ft 474 kts 290°
2026-05-06 11:14 -12.92795 123.00758 27955 ft 475 kts 290°
2026-05-06 11:14 -12.91467 122.97672 27950 ft 474 kts 290°
2026-05-06 11:15 -12.90136 122.94582 27949 ft 475 kts 290°
2026-05-06 11:15 -12.88809 122.91499 27939 ft 475 kts 290°
2026-05-06 11:15 -12.87474 122.88403 27943 ft 474 kts 290°
2026-05-06 11:15 -12.86140 122.85308 27942 ft 474 kts 290°
2026-05-06 11:16 -12.84827 122.82261 27942 ft 473 kts 290°
2026-05-06 11:16 -12.83497 122.79178 27940 ft 473 kts 290°
2026-05-06 11:16 -12.82157 122.76073 27940 ft 473 kts 290°
2026-05-06 11:16 -12.80830 122.72998 27941 ft 474 kts 290°
2026-05-06 11:17 -12.79505 122.69930 27937 ft 474 kts 290°
2026-05-06 11:17 -12.78165 122.66827 27937 ft 473 kts 290°
2026-05-06 11:17 -12.76830 122.63740 27935 ft 474 kts 290°
2026-05-06 11:17 -12.75509 122.60683 27935 ft 474 kts 290°
2026-05-06 11:18 -12.74171 122.57589 27934 ft 475 kts 290°
2026-05-06 11:18 -12.72839 122.54511 27932 ft 475 kts 290°
2026-05-06 11:18 -12.71494 122.51402 27934 ft 476 kts 290°
2026-05-06 11:18 -12.70156 122.48312 27932 ft 475 kts 290°
2026-05-06 11:19 -12.68829 122.45247 27931 ft 475 kts 290°
2026-05-06 11:19 -12.67479 122.42133 27928 ft 474 kts 290°
2026-05-06 11:19 -12.66150 122.39066 27929 ft 480 kts 290°
2026-05-06 11:19 -12.64789 122.35924 28136 ft 484 kts 290°
2026-05-06 11:20 -12.63430 122.32793 28681 ft 482 kts 290°
2026-05-06 11:20 -12.62077 122.29677 29382 ft 476 kts 290°
2026-05-06 11:20 -12.60732 122.26580 29873 ft 476 kts 290°
2026-05-06 11:21 -12.58048 122.20400 29933 ft 476 kts 290°
2026-05-06 11:21 -12.55368 122.14233 29933 ft 475 kts 290°
2026-05-06 11:22 -12.52683 122.08061 29930 ft 475 kts 290°
2026-05-06 11:22 -12.50002 122.01902 29931 ft 474 kts 290°
2026-05-06 11:23 -12.47319 121.95742 29930 ft 475 kts 290°
2026-05-06 11:23 -12.44629 121.89571 29928 ft 475 kts 290°
2026-05-06 11:24 -12.41932 121.83388 29931 ft 476 kts 290°
2026-05-06 11:24 -12.39231 121.77202 29928 ft 476 kts 290°
2026-05-06 11:25 -12.36551 121.71067 29927 ft 476 kts 290°
2026-05-06 11:25 -12.33842 121.64871 29928 ft 476 kts 290°
2026-05-06 11:26 -12.31140 121.58694 29927 ft 476 kts 290°
2026-05-06 11:26 -12.28453 121.52556 29926 ft 476 kts 290°
2026-05-06 11:27 -12.25735 121.46353 29924 ft 477 kts 290°
2026-05-06 11:27 -12.23039 121.40205 29926 ft 477 kts 290°
2026-05-06 11:28 -12.20325 121.34018 29929 ft 477 kts 290°
2026-05-06 11:28 -12.17612 121.27840 29938 ft 478 kts 290°
2026-05-06 11:29 -12.14893 121.21650 29934 ft 477 kts 290°
2026-05-06 11:29 -12.12187 121.15498 29932 ft 477 kts 291°
2026-05-06 11:30 -12.09465 121.09309 29923 ft 477 kts 291°
2026-05-06 11:30 -12.06742 121.03127 29915 ft 478 kts 290°
2026-05-06 11:31 -12.04009 120.96923 29911 ft 479 kts 291°
2026-05-06 11:31 -12.01277 120.90727 29912 ft 479 kts 291°
2026-05-06 11:32 -11.98253 120.84676 29912 ft 482 kts 295°
2026-05-06 11:32 -11.95005 120.78683 29910 ft 482 kts 295°
2026-05-06 11:33 -11.91755 120.72702 29910 ft 481 kts 295°
2026-05-06 11:33 -11.88507 120.66733 29905 ft 482 kts 295°
2026-05-06 11:34 -11.85249 120.60752 29909 ft 482 kts 295°
2026-05-06 11:34 -11.82012 120.54814 29911 ft 482 kts 295°
2026-05-06 11:35 -11.78740 120.48817 29915 ft 483 kts 295°
2026-05-06 11:35 -11.75478 120.42844 29918 ft 483 kts 295°
2026-05-06 11:36 -11.72210 120.36865 29921 ft 483 kts 295°
2026-05-06 11:36 -11.68922 120.30852 29932 ft 484 kts 295°
2026-05-06 11:37 -11.65660 120.24890 29932 ft 485 kts 296°
2026-05-06 11:37 -11.62378 120.18896 29932 ft 484 kts 295°
2026-05-06 11:38 -11.59089 120.12891 29932 ft 484 kts 295°
2026-05-06 11:38 -11.55796 120.06885 29931 ft 485 kts 296°
2026-05-06 11:39 -11.52518 120.00909 29931 ft 485 kts 296°
2026-05-06 11:39 -11.49217 119.94895 29931 ft 485 kts 296°
2026-05-06 11:40 -11.45914 119.88881 29929 ft 485 kts 296°
2026-05-06 11:40 -11.42623 119.82892 29928 ft 486 kts 296°
2026-05-06 11:41 -11.39336 119.76914 29927 ft 486 kts 296°
2026-05-06 11:41 -11.36026 119.70897 29927 ft 486 kts 296°
2026-05-06 11:42 -11.32718 119.64889 29921 ft 486 kts 296°
2026-05-06 11:42 -11.29410 119.58883 29915 ft 487 kts 296°
2026-05-06 11:43 -11.26094 119.52867 29912 ft 488 kts 296°
2026-05-06 11:43 -11.22785 119.46867 29913 ft 488 kts 296°
2026-05-06 11:44 -11.17790 119.37815 29913 ft 488 kts 296°
2026-05-06 11:44 -11.14479 119.31821 29918 ft 488 kts 296°
2026-05-06 11:45 -11.11143 119.25784 29920 ft 487 kts 296°
2026-05-06 11:45 -11.07836 119.19804 29915 ft 488 kts 296°
2026-05-06 11:46 -11.04512 119.13796 29911 ft 487 kts 296°
2026-05-06 11:46 -11.01177 119.07773 29919 ft 489 kts 296°
2026-05-06 11:47 -10.97840 119.01749 29911 ft 487 kts 296°
2026-05-06 11:47 -10.94517 118.95753 29912 ft 489 kts 296°
2026-05-06 11:48 -10.91165 118.89708 29911 ft 490 kts 296°
2026-05-06 11:48 -10.87823 118.83686 29905 ft 490 kts 296°
2026-05-06 11:49 -10.84469 118.77644 29904 ft 490 kts 296°
2026-05-06 11:49 -10.81111 118.71600 29904 ft 490 kts 296°
2026-05-06 11:50 -10.77759 118.65570 29903 ft 490 kts 296°
2026-05-06 11:50 -10.74428 118.59580 29903 ft 490 kts 296°
2026-05-06 11:51 -10.71074 118.53554 29902 ft 489 kts 296°
2026-05-06 11:51 -10.67719 118.47527 29904 ft 490 kts 296°
2026-05-06 11:52 -10.64347 118.41474 29906 ft 491 kts 296°
2026-05-06 11:52 -10.60999 118.35470 29910 ft 491 kts 296°
2026-05-06 11:53 -10.57618 118.29406 29923 ft 493 kts 296°
2026-05-06 11:53 -10.54233 118.23341 29924 ft 492 kts 297°
2026-05-06 11:54 -10.50874 118.17326 29922 ft 492 kts 297°
2026-05-06 11:54 -10.47485 118.11259 29920 ft 492 kts 297°
2026-05-06 11:55 -10.44118 118.05237 29918 ft 492 kts 296°
2026-05-06 11:55 -10.40743 117.99202 29918 ft 493 kts 297°
2026-05-06 11:56 -10.37371 117.93176 29909 ft 492 kts 297°
2026-05-06 11:56 -10.33974 117.87109 29910 ft 492 kts 297°
2026-05-06 11:57 -10.30590 117.81068 29909 ft 493 kts 297°
2026-05-06 11:57 -10.27202 117.75025 29906 ft 494 kts 297°
2026-05-06 11:58 -10.23816 117.68986 29910 ft 494 kts 297°
2026-05-06 11:58 -10.20425 117.62945 29908 ft 494 kts 297°
2026-05-06 11:59 -10.17011 117.56863 29907 ft 495 kts 297°
2026-05-06 11:59 -10.13620 117.50827 29905 ft 493 kts 297°
2026-05-06 12:00 -10.10234 117.44802 29906 ft 493 kts 297°
2026-05-06 12:00 -10.06835 117.38757 29909 ft 494 kts 297°
2026-05-06 12:01 -10.03434 117.32716 29913 ft 494 kts 297°
2026-05-06 12:01 -9.99907 117.26736 29914 ft 495 kts 298°
2026-05-06 12:02 -9.96343 117.20728 29914 ft 496 kts 298°
2026-05-06 12:02 -9.92820 117.14786 29915 ft 495 kts 298°
2026-05-06 12:03 -9.89278 117.08810 29915 ft 495 kts 298°
2026-05-06 12:03 -9.85723 117.02812 29912 ft 494 kts 298°
2026-05-06 12:04 -9.82190 116.96854 29911 ft 495 kts 298°
2026-05-06 12:04 -9.78654 116.90892 29910 ft 495 kts 298°
2026-05-06 12:05 -9.75098 116.84898 29911 ft 495 kts 298°
2026-05-06 12:05 -9.71560 116.78919 29912 ft 495 kts 298°
2026-05-06 12:06 -9.68035 116.72941 29910 ft 495 kts 298°
2026-05-06 12:06 -9.64510 116.66966 29912 ft 495 kts 298°
2026-05-06 12:07 -9.60962 116.60953 29911 ft 495 kts 298°
2026-05-06 12:07 -9.57440 116.54990 29912 ft 496 kts 298°
2026-05-06 12:08 -9.53896 116.48994 29912 ft 495 kts 298°
2026-05-06 12:08 -9.50362 116.43016 29912 ft 496 kts 298°
2026-05-06 12:09 -9.46824 116.37034 29911 ft 497 kts 298°
2026-05-06 12:09 -9.43278 116.31043 29909 ft 497 kts 298°
2026-05-06 12:10 -9.39722 116.25037 29902 ft 497 kts 298°
2026-05-06 12:10 -9.36178 116.19056 29894 ft 497 kts 298°
2026-05-06 12:11 -9.32623 116.13058 29894 ft 497 kts 298°
2026-05-06 12:11 -9.29050 116.07033 29891 ft 497 kts 298°
2026-05-06 12:12 -9.25514 116.01073 29890 ft 496 kts 298°
2026-05-06 12:12 -9.21953 115.95072 29890 ft 498 kts 299°
2026-05-06 12:13 -9.18396 115.89082 29889 ft 498 kts 299°
2026-05-06 12:13 -9.14813 115.83052 29890 ft 498 kts 298°
2026-05-06 12:14 -9.11255 115.77067 29889 ft 498 kts 298°
2026-05-06 12:14 -9.07679 115.71053 29890 ft 498 kts 299°
2026-05-06 12:15 -9.04109 115.65054 29889 ft 499 kts 298°
2026-05-06 12:15 -9.00528 115.59036 29889 ft 499 kts 298°
2026-05-06 12:16 -8.96967 115.53058 29890 ft 499 kts 299°
2026-05-06 12:16 -8.93391 115.47056 29896 ft 499 kts 299°
2026-05-06 12:17 -8.89811 115.41050 29896 ft 500 kts 299°
2026-05-06 12:17 -8.86221 115.35030 29891 ft 499 kts 299°
2026-05-06 12:18 -8.82620 115.28995 29892 ft 499 kts 299°
2026-05-06 12:18 -8.79031 115.22983 29886 ft 500 kts 299°
2026-05-06 12:19 -8.75477 115.16957 29880 ft 499 kts 295°
2026-05-06 12:19 -8.73300 115.12013 29887 ft 498 kts 290°
2026-05-06 12:20 -8.70648 115.05570 29889 ft 498 kts 290°
2026-05-06 12:20 -8.67999 114.99127 29889 ft 499 kts 291°
2026-05-06 12:21 -8.65333 114.92646 29890 ft 498 kts 291°
2026-05-06 12:21 -8.62687 114.86214 29888 ft 498 kts 291°
2026-05-06 12:22 -8.60036 114.79772 29886 ft 499 kts 291°
2026-05-06 12:22 -8.57381 114.73325 29887 ft 498 kts 291°
2026-05-06 12:23 -8.54708 114.66836 29890 ft 499 kts 291°
2026-05-06 12:23 -8.52038 114.60359 29890 ft 499 kts 291°
2026-05-06 12:24 -8.49381 114.53916 29888 ft 499 kts 291°
2026-05-06 12:24 -8.46708 114.47438 29892 ft 498 kts 291°
2026-05-06 12:25 -8.44055 114.41010 29895 ft 499 kts 291°
2026-05-06 12:25 -8.41384 114.34543 29902 ft 500 kts 291°
2026-05-06 12:26 -8.38698 114.28043 29915 ft 500 kts 291°
2026-05-06 12:26 -8.36028 114.21585 29921 ft 499 kts 291°
2026-05-06 12:27 -8.33356 114.15128 29936 ft 499 kts 291°
2026-05-06 12:27 -8.30666 114.08628 29953 ft 499 kts 291°
2026-05-06 12:28 -8.28003 114.02197 29976 ft 499 kts 291°
2026-05-06 12:28 -8.25314 113.95709 29982 ft 500 kts 291°
2026-05-06 12:29 -8.22646 113.89272 29980 ft 500 kts 291°
2026-05-06 12:29 -8.19963 113.82803 29987 ft 501 kts 291°
2026-05-06 12:30 -8.17261 113.76294 29997 ft 501 kts 291°
2026-05-06 12:30 -8.14576 113.69827 30007 ft 501 kts 291°
2026-05-06 12:31 -8.11885 113.63349 30026 ft 500 kts 291°
2026-05-06 12:31 -8.09212 113.56917 30053 ft 500 kts 291°
2026-05-06 12:32 -8.06508 113.50416 30083 ft 500 kts 291°
2026-05-06 12:32 -8.03837 113.43995 30097 ft 501 kts 291°
2026-05-06 12:33 -8.01139 113.37515 30083 ft 501 kts 291°
2026-05-06 12:33 -7.98434 113.31020 30061 ft 502 kts 291°
2026-05-06 12:34 -7.95741 113.24556 30012 ft 502 kts 291°
2026-05-06 12:34 -7.93039 113.18076 30042 ft 501 kts 291°
2026-05-06 12:35 -7.90337 113.11597 30062 ft 502 kts 292°
2026-05-06 12:35 -7.87628 113.05106 30074 ft 502 kts 291°
2026-05-06 12:36 -7.84916 112.98611 30069 ft 502 kts 291°
2026-05-06 12:36 -7.82215 112.92144 30041 ft 502 kts 291°
2026-05-06 12:37 -7.79493 112.85631 30002 ft 503 kts 291°
2026-05-06 12:37 -7.76775 112.79131 29966 ft 504 kts 291°
2026-05-06 12:38 -7.74065 112.72655 29954 ft 503 kts 291°
2026-05-06 12:38 -7.71340 112.66143 29995 ft 504 kts 291°
2026-05-06 12:39 -7.68620 112.59648 30032 ft 504 kts 292°
2026-05-06 12:39 -7.65903 112.53163 30048 ft 504 kts 292°
2026-05-06 12:40 -7.63173 112.46652 30037 ft 505 kts 292°
2026-05-06 12:40 -7.60433 112.40118 29987 ft 505 kts 292°
2026-05-06 12:41 -7.57700 112.33602 29944 ft 505 kts 292°
2026-05-06 12:41 -7.54954 112.27062 29911 ft 505 kts 292°
2026-05-06 12:42 -7.52224 112.20563 29895 ft 504 kts 292°
2026-05-06 12:42 -7.49504 112.14089 29893 ft 504 kts 292°
2026-05-06 12:43 -7.46759 112.07558 29895 ft 505 kts 292°
2026-05-06 12:43 -7.44019 112.01044 29895 ft 506 kts 292°
2026-05-06 12:44 -7.41282 111.94539 29896 ft 508 kts 292°
2026-05-06 12:44 -7.38525 111.87991 29894 ft 507 kts 292°
2026-05-06 12:45 -7.35781 111.81477 29892 ft 505 kts 292°
2026-05-06 12:46 -7.31685 111.71756 29891 ft 505 kts 292°
2026-05-06 12:46 -7.28924 111.65208 29888 ft 505 kts 292°
2026-05-06 12:47 -7.26189 111.58726 29881 ft 506 kts 292°
2026-05-06 12:47 -7.23440 111.52212 29883 ft 506 kts 292°
2026-05-06 12:48 -7.20673 111.45660 29882 ft 507 kts 292°
2026-05-06 12:48 -7.17923 111.39148 29887 ft 508 kts 292°
2026-05-06 12:49 -7.15166 111.32625 29891 ft 507 kts 292°
2026-05-06 12:49 -7.12396 111.26075 29887 ft 508 kts 292°
2026-05-06 12:50 -7.09636 111.19550 29890 ft 507 kts 292°
2026-05-06 12:50 -7.06877 111.13030 29884 ft 506 kts 292°
2026-05-06 12:51 -7.04129 111.06541 29890 ft 507 kts 292°
2026-05-06 12:51 -7.01361 111.00007 29888 ft 508 kts 292°
2026-05-06 12:52 -6.98605 110.93503 29888 ft 508 kts 292°
2026-05-06 12:52 -6.95822 110.86938 29884 ft 508 kts 292°
2026-05-06 12:53 -6.93054 110.80413 29875 ft 508 kts 292°
2026-05-06 12:53 -6.90285 110.73888 29864 ft 508 kts 292°